Regional Weather Roundup
Issued by NWS

Home | Current Version | Previous Version | Text Only | Print | Product List | Glossary Off
Versions: 1 2 3 4 5 6 7 8 9 10 11 12 13 14 15 16 17 18 19 20 21 22 23 24 25 26 27 28 29 30 31 32 33 34 35 36 37 38 39 40 41 42 43 44 45 46 47 48 49 50

404
ASUS43 KBIS 041602
RWRND

NORTH DAKOTA REGIONAL WEATHER ROUNDUP
NATIONAL WEATHER SERVICE BISMARCK ND
1100 AM CDT WED MAY 04 2016

NOTE: "FAIR" INDICATES FEW OR NO CLOUDS BELOW 12,000 FEET WITH NO
SIGNIFICANT WEATHER AND/OR OBSTRUCTIONS TO VISIBILITY.


NDZ001>003-009>011-017-041700-
NORTHWEST NORTH DAKOTA

CITY           SKY/WX    TMP DP  RH WIND       PRES   REMARKS
WILLISTON      SUNNY     72  44  36 S9        30.03F
MINOT          SUNNY     74  34  23 CALM      30.03F
MINOT AFB      SUNNY     70  37  30 VRB3      30.02F
$$

NDZ018>021-031>035-040>046-041700-
SOUTHWEST NORTH DAKOTA

CITY           SKY/WX    TMP DP  RH WIND       PRES   REMARKS
BISMARCK       SUNNY     63  35  35 S6        30.10F
DICKINSON      SUNNY     71  38  29 SW10      30.06F
GARRISON         N/A     66  33  29 VRB3      30.06F
HETTINGER ARPT SUNNY     70  40  33 SW7       30.11F
$$

NDZ004>008-012>016-024-026-027-054-041700-
NORTHEAST NORTH DAKOTA

CITY           SKY/WX    TMP DP  RH WIND       PRES   REMARKS
GRAND FORKS    MOSUNNY   56  36  47 NW8       30.10F
GRND FRKS AFB  SUNNY     55  36  47 NW2       30.10F
DEVILS LAKE    SUNNY     55  38  52 SW8       30.11F
$$

NDZ022-023-025-028>030-036>039-047>053-041700-
SOUTHEAST NORTH DAKOTA

CITY           SKY/WX    TMP DP  RH WIND       PRES   REMARKS
FARGO          SUNNY     59  37  44 N9        30.09F
JAMESTOWN      SUNNY     56  34  43 CALM      30.10F
$$





USA.gov is the U.S. government's official web portal to all federal, state and local government web resources and services.